Weather History for Plant City, FL

Change the Weather History Date:

Saturday, November 10, 2012

  Actual Average Record
Temperature  
Mean Temperature 64 °F -  
Max Temperature 78 °F 80 °F 88 °F (1935)
Min Temperature 51 °F 57 °F 37 °F (1943)
Growing Degree Days 14 (Base 50)    
Moisture  
Dew Point 49 °F    
Average Humidity 60    
Maximum Humidity 88    
Minimum Humidity 34    
Precipitation  
Precipitation 0.00 in - - ()
Sea Level Pressure  
Sea Level Pressure 30.29 in    
Wind  
Wind Speed 5 mph (ENE)    
Max Wind Speed 14 mph    
Max Gust Speed 23 mph    
Visibility 10 miles    
Events      
Averages and records for this station are not official NWS values.
T = Trace of Precipitation, MM = Missing Value Source: NWS Daily Summary

Daily Weather History Graph

Daily Weather History Graph

Search for Another Location

Airport:

Trip Planner

Search our weather history database for the weather conditions in past years. The results will help you decide how hot, cold, wet, or windy it might be!

Date:

Astronomy

Nov. 10, 2012 Rise Set
Actual Time 6:46 AM EST 5:38 PM EST
Civil Twilight 6:22 AM EST 6:02 PM EST
Nautical Twilight 5:54 AM EST 6:30 PM EST
Astronomical Twilight 5:26 AM EST 6:58 PM EST
Moon 3:07 AM EST (11/10) 3:10 PM EST (11/10)
Length of Visible Light 11h 40m
Length of Day
10h 51m
Waning Crescent, 14% of the Moon is Illuminated
Nov 10
Waning Crescent
Nov 13
New
Nov 20
First Quarter
Nov 28
Full
Dec 6
Last Quarter

Hourly Weather History & Observations

Time (EST) Temp. Dew Point Humidity Pressure Visibility Wind Dir Wind Speed Gust Speed Precip Events Conditions
12:15 AM 53.6 °F 46.4 °F 77% 30.26 in 10.0 mi NE 3.5 mph - N/A   Clear
12:35 AM 53.6 °F 46.4 °F 77% 30.26 in 10.0 mi NE 3.5 mph - N/A   Clear
12:55 AM 53.6 °F 46.4 °F 77% 30.27 in 10.0 mi ENE 3.5 mph - N/A   Clear
1:15 AM 53.6 °F 46.4 °F 77% 30.26 in 10.0 mi NE 3.5 mph - N/A   Clear
1:35 AM 53.6 °F 46.4 °F 77% 30.26 in 10.0 mi NE 3.5 mph - N/A   Clear
1:55 AM 53.6 °F 46.4 °F 77% 30.26 in 10.0 mi NE 3.5 mph - N/A   Clear
2:15 AM 53.6 °F 48.2 °F 82% 30.26 in 10.0 mi NNE 3.5 mph - N/A   Clear
2:35 AM 53.6 °F 46.4 °F 77% 30.27 in 10.0 mi NNE 3.5 mph - N/A   Clear
2:55 AM 51.8 °F 48.2 °F 88% 30.27 in 10.0 mi Calm Calm - N/A   Scattered Clouds
3:15 AM 51.8 °F 48.2 °F 88% 30.26 in 10.0 mi NE 3.5 mph - N/A   Mostly Cloudy
3:55 AM 53.6 °F 48.2 °F 82% 30.26 in 10.0 mi Calm Calm - N/A   Scattered Clouds
4:15 AM 53.6 °F 48.2 °F 82% 30.26 in 10.0 mi NNE 3.5 mph - N/A   Mostly Cloudy
4:35 AM 51.8 °F 46.4 °F 82% 30.26 in 10.0 mi NE 3.5 mph - N/A   Scattered Clouds
4:55 AM 51.8 °F 48.2 °F 88% 30.27 in 10.0 mi Calm Calm - N/A   Clear
5:15 AM 51.8 °F 48.2 °F 88% 30.27 in 10.0 mi Calm Calm - N/A   Clear
5:35 AM 51.8 °F 48.2 °F 88% 30.28 in 10.0 mi NNE 3.5 mph - N/A   Clear
5:55 AM 51.8 °F 48.2 °F 88% 30.28 in 10.0 mi NNE 3.5 mph - N/A   Scattered Clouds
6:15 AM 51.8 °F 46.4 °F 82% 30.28 in 10.0 mi NE 4.6 mph - N/A   Clear
6:35 AM 51.8 °F 46.4 °F 82% 30.29 in 10.0 mi NNE 3.5 mph - N/A   Scattered Clouds
6:55 AM 53.6 °F 46.4 °F 77% 30.29 in 10.0 mi North - - N/A   Mostly Cloudy
7:15 AM 53.6 °F 46.4 °F 77% 30.30 in 10.0 mi NNE 4.6 mph - N/A   Scattered Clouds
7:35 AM 55.4 °F 48.2 °F 77% 30.31 in 10.0 mi NE 3.5 mph - N/A   Scattered Clouds
7:55 AM 57.2 °F 48.2 °F 72% 30.32 in 10.0 mi NNE 3.5 mph - N/A   Scattered Clouds
8:15 AM 59.0 °F 48.2 °F 67% 30.32 in 7.0 mi NE 5.8 mph - N/A   Clear
8:35 AM 60.8 °F 48.2 °F 63% 30.33 in 5.0 mi NE 5.8 mph - N/A   Haze
8:55 AM 62.6 °F 48.2 °F 59% 30.33 in 10.0 mi NNE 4.6 mph - N/A   Clear
9:15 AM 66.2 °F 48.2 °F 52% 30.34 in 10.0 mi NE 8.1 mph - N/A   Clear
9:35 AM 69.8 °F 46.4 °F 43% 30.34 in 10.0 mi ENE 8.1 mph - N/A   Clear
9:55 AM 69.8 °F 46.4 °F 43% 30.35 in 10.0 mi NE 4.6 mph - N/A   Clear
10:15 AM 73.4 °F 48.2 °F 41% 30.34 in 10.0 mi ENE 5.8 mph - N/A   Clear
10:35 AM 73.4 °F 48.2 °F 41% 30.34 in 10.0 mi ENE 9.2 mph - N/A   Clear
10:55 AM 75.2 °F 48.2 °F 38% 30.33 in 10.0 mi NE 11.5 mph - N/A   Clear
11:15 AM 75.2 °F 48.2 °F 38% 30.33 in 10.0 mi ENE 11.5 mph - N/A   Clear
11:35 AM 75.2 °F 48.2 °F 38% 30.32 in 10.0 mi ESE 6.9 mph - N/A   Clear
11:55 AM 77.0 °F 48.2 °F 36% 30.31 in 10.0 mi East 10.4 mph - N/A   Scattered Clouds
12:15 PM 75.2 °F 48.2 °F 38% 30.30 in 10.0 mi ENE 12.7 mph 16.1 mph N/A   Scattered Clouds
12:35 PM 77.0 °F 48.2 °F 36% 30.28 in 10.0 mi East 8.1 mph 17.3 mph N/A   Clear
12:55 PM 77.0 °F 48.2 °F 36% 30.27 in 10.0 mi SE 9.2 mph 23.0 mph N/A   Mostly Cloudy
1:15 PM 78.8 °F 48.2 °F 34% 30.27 in 10.0 mi ENE 9.2 mph 16.1 mph N/A   Mostly Cloudy
1:35 PM 78.8 °F 48.2 °F 34% 30.26 in 10.0 mi East 13.8 mph 19.6 mph N/A   Mostly Cloudy
1:55 PM 77.0 °F 46.4 °F 34% 30.25 in 10.0 mi East 10.4 mph - N/A   Scattered Clouds
2:15 PM 77.0 °F 48.2 °F 36% 30.25 in 10.0 mi East 9.2 mph 16.1 mph N/A   Clear
2:35 PM 78.8 °F 48.2 °F 34% 30.25 in 10.0 mi ENE 8.1 mph 17.3 mph N/A   Scattered Clouds
2:55 PM 75.2 °F 48.2 °F 38% 30.25 in 10.0 mi ENE 9.2 mph - N/A   Mostly Cloudy
3:15 PM 75.2 °F 48.2 °F 38% 30.25 in 10.0 mi East 8.1 mph - N/A   Scattered Clouds
3:35 PM 75.2 °F 48.2 °F 38% 30.25 in 10.0 mi East 9.2 mph - N/A   Scattered Clouds
3:55 PM 77.0 °F 48.2 °F 36% 30.25 in 10.0 mi ENE 10.4 mph 17.3 mph N/A   Scattered Clouds
4:15 PM 73.4 °F 48.2 °F 41% 30.25 in 10.0 mi East 4.6 mph - N/A   Scattered Clouds
4:35 PM 75.2 °F 48.2 °F 38% 30.26 in 10.0 mi East 6.9 mph - N/A   Scattered Clouds
4:55 PM 71.6 °F 50.0 °F 46% 30.26 in 10.0 mi East 5.8 mph - N/A   Scattered Clouds
5:15 PM 71.6 °F 50.0 °F 46% 30.26 in 10.0 mi ESE 5.8 mph - N/A   Mostly Cloudy
5:35 PM 73.4 °F 50.0 °F 44% 30.26 in 10.0 mi East 6.9 mph - N/A   Overcast
5:55 PM 71.6 °F 50.0 °F 46% 30.27 in 10.0 mi East 5.8 mph - N/A   Overcast
6:15 PM 71.6 °F 50.0 °F 46% 30.27 in 10.0 mi East 4.6 mph - N/A   Overcast
6:35 PM 69.8 °F 50.0 °F 49% 30.28 in 10.0 mi East 3.5 mph - N/A   Scattered Clouds
6:55 PM 68.0 °F 51.8 °F 56% 30.28 in 10.0 mi East 4.6 mph - N/A   Scattered Clouds
7:15 PM 66.2 °F 51.8 °F 60% 30.29 in 10.0 mi ENE 3.5 mph - N/A   Mostly Cloudy
7:35 PM 68.0 °F 51.8 °F 56% 30.30 in 10.0 mi ENE 3.5 mph - N/A   Overcast
7:55 PM 68.0 °F 53.6 °F 60% 30.30 in 10.0 mi Calm Calm - N/A   Overcast
8:15 PM 68.0 °F 53.6 °F 60% 30.30 in 10.0 mi ENE 5.8 mph - N/A   Overcast
8:35 PM 68.0 °F 53.6 °F 60% 30.30 in 10.0 mi East 5.8 mph - N/A   Mostly Cloudy
8:55 PM 66.2 °F 53.6 °F 64% 30.31 in 10.0 mi ENE 4.6 mph - N/A   Scattered Clouds
9:15 PM 64.4 °F 53.6 °F 68% 30.31 in 10.0 mi ENE 4.6 mph - N/A   Clear
9:35 PM 64.4 °F 53.6 °F 68% 30.32 in 10.0 mi ENE 3.5 mph - N/A   Clear
9:55 PM 62.6 °F 53.6 °F 72% 30.32 in 10.0 mi NE 3.5 mph - N/A   Clear
10:35 PM 62.6 °F 53.6 °F 72% 30.31 in 10.0 mi Calm Calm - N/A   Clear
11:15 PM 60.8 °F 53.6 °F 77% 30.31 in 10.0 mi Calm Calm - N/A   Clear
11:35 PM 59.0 °F 53.6 °F 82% 30.30 in 10.0 mi NE 3.5 mph - N/A   Clear
11:55 PM 60.8 °F 53.6 °F 77% 30.29 in 10.0 mi NE 3.5 mph - N/A   Scattered Clouds